[[{"header":{"parameterUnit":"m.s-1","parameterCategory":1,"la1":30.2991,"la2":30.254,"lo1":-89.0895,"lo2":-89.0444,"dy":0.0017,"dx":0.0017,"nx":28,"ny":28,"refTime":"2025-08-02T21:00:00:Z","depth":0,"parameterNumber":2,"parameterNumberName":"U-component_of_WINDS"},"data":[0,0,0,0,0,0,0,0,0,0,0,0,0,0,0,0,0,0,0,0,0,0,0,0,0,0,0,0,0,0,0,0,0,0,0,0,0,0,0,0,0,0,0,0,0,0,0,0,0,0,0,0,0,0,0,0,0,0,-0.4626,-0.4626,0,-0.4659,-0.4659,-0.4659,-0.4679,-0.4679,-0.4679,-0.4679,-0.4712,-0.4713,-0.4714,0,0,0,0,0,0,0,0,0,0,0,0,0,-0.458,-0.458,-0.4626,-0.4626,-0.4627,-0.4658,-0.4659,-0.4659,-0.4679,-0.4679,-0.4679,-0.4679,-0.4712,-0.4713,-0.4714,0,0,0,0,0,0,0,0,0,0,0,0,0,-0.4605,-0.4581,-0.4626,-0.464,-0.4642,-0.4658,-0.4659,-0.4659,-0.4679,-0.4679,-0.4679,-0.4679,-0.4711,-0.4713,-0.4714,-0.4718,0,0,-0.4717,-0.4718,0,0,0,0,0,0,0,0,-0.4603,-0.4606,-0.4638,-0.4639,-0.4641,-0.4665,-0.4655,-0.4679,-0.4679,-0.4665,-0.4679,-0.4679,-0.4696,-0.4699,-0.4704,-0.472,-0.4721,-0.4718,-0.4718,-0.4719,-0.4719,0,0,0,0,0,0,0,-0.4602,-0.4605,-0.4639,-0.4638,-0.464,-0.4645,-0.4649,-0.466,-0.4679,-0.4666,-0.4667,-0.4671,-0.4697,-0.4703,-0.4705,-0.4722,-0.4717,-0.4719,-0.4719,-0.472,-0.4743,-0.4743,0,0,0,0,0,0,-0.4598,-0.4604,-0.4638,-0.464,-0.4622,-0.4646,-0.465,-0.4657,-0.4679,-0.4683,-0.4671,-0.4672,-0.4701,-0.4704,-0.4707,-0.4714,-0.4719,-0.472,-0.4721,-0.4743,-0.4743,-0.4743,0,0,0,0,0,0,-0.4597,-0.46,-0.4636,-0.4622,-0.4627,-0.4646,-0.4654,-0.4658,-0.4664,-0.4683,-0.4686,-0.4674,-0.4701,-0.4705,-0.4715,-0.4715,-0.472,-0.4721,-0.4743,-0.4743,-0.4743,-0.4727,0,0,0,0,0,0,-0.4595,-0.46,-0.4602,-0.4622,-0.4628,-0.4645,-0.4654,-0.4658,-0.4666,-0.4667,-0.4686,-0.469,-0.4702,-0.4713,-0.4717,-0.4717,-0.4722,-0.4743,-0.4743,-0.4743,-0.4728,-0.4727,-0.4726,0,0,0,0,0,-0.4593,-0.4596,-0.4602,-0.4606,-0.4631,-0.4645,-0.4648,-0.4662,-0.4666,-0.4668,-0.468,-0.4689,-0.4714,-0.4714,-0.4718,-0.4718,-0.4743,-0.4743,-0.4743,-0.4729,-0.4727,-0.4726,0,0,0,0,0,0,-0.4576,-0.4599,-0.4606,-0.4615,-0.4628,-0.4648,-0.4651,-0.466,-0.4671,-0.4672,-0.4689,-0.4693,-0.4702,-0.4711,-0.4711,-0.4724,-0.473,-0.473,-0.4718,-0.4716,-0.4715,-0.4713,-0.4723,0,0,0,0,0,-0.4573,-0.4582,-0.4602,-0.4609,-0.4615,-0.4632,-0.4638,-0.4648,-0.4662,-0.4667,-0.468,-0.4693,-0.4704,-0.4711,-0.4722,-0.473,-0.4734,-0.4732,-0.473,-0.4729,-0.4729,-0.4734,-0.4733,-0.4742,-0.4742,-0.4742,0,0,-0.4567,-0.4581,-0.4586,-0.4605,-0.4616,-0.4626,-0.4636,-0.4646,-0.4653,-0.4668,-0.4679,-0.4689,-0.4705,-0.4714,-0.4718,-0.4722,-0.4728,-0.4729,-0.4728,-0.4729,-0.4734,-0.4733,-0.4732,-0.4742,-0.4742,-0.4742,0,0,-0.4561,-0.4573,-0.4579,-0.459,-0.4607,-0.4618,-0.4619,-0.4638,-0.4646,-0.4657,-0.4669,-0.4677,-0.4696,-0.4706,-0.4714,-0.4712,-0.4721,-0.4715,-0.4709,-0.4713,-0.4713,-0.4712,-0.4711,-0.4711,-0.4716,-0.4716,-0.4716,0,-0.4552,-0.4566,-0.4582,-0.459,-0.4599,-0.4614,-0.462,-0.463,-0.4649,-0.4654,-0.4658,-0.4681,-0.4693,-0.4704,-0.4704,-0.471,-0.4712,-0.4713,-0.4712,-0.4711,-0.4711,-0.471,-0.471,-0.4715,-0.4715,-0.4715,-0.4715,0,-0.4554,-0.4564,-0.4567,-0.4586,-0.4594,-0.4602,-0.4618,-0.4625,-0.4634,-0.4645,-0.4656,-0.467,-0.4684,-0.4688,-0.4697,-0.4701,-0.4702,-0.4709,-0.4715,-0.4709,-0.4709,-0.4709,-0.4714,-0.4714,-0.4714,-0.4714,0,0,-0.4538,-0.4564,-0.4565,-0.4574,-0.4593,-0.4601,-0.4609,-0.4624,-0.4629,-0.4642,-0.4649,-0.4664,-0.467,-0.4679,-0.4689,-0.4693,-0.469,-0.4699,-0.4699,-0.4697,-0.4696,-0.4691,-0.469,-0.4696,-0.4696,-0.4696,-0.4694,0,-0.4535,-0.455,-0.4564,-0.4575,-0.4584,-0.4599,-0.4606,-0.4619,-0.4629,-0.4638,-0.465,-0.466,-0.4668,-0.4673,-0.4677,-0.469,-0.469,-0.469,-0.4703,-0.4703,-0.4699,-0.469,-0.4685,-0.4683,-0.4694,-0.4694,-0.4694,0,-0.4533,-0.4545,-0.4557,-0.4575,-0.458,-0.4586,-0.46,-0.4609,-0.4623,-0.4631,-0.4641,-0.4651,-0.466,-0.4666,-0.4679,-0.4678,-0.4684,-0.4691,-0.4691,-0.4693,-0.4698,-0.4691,-0.4682,-0.4682,-0.4695,-0.4695,-0.4695,0,-0.4519,-0.4539,-0.4549,-0.4555,-0.4577,-0.4581,-0.459,-0.4605,-0.4613,-0.4625,-0.463,-0.4643,-0.465,-0.466,-0.4674,-0.4676,-0.4685,-0.4692,-0.4691,-0.4691,-0.4693,-0.4692,-0.4684,-0.4697,-0.4697,-0.4697,-0.4697,0,-0.4514,-0.4521,-0.4543,-0.4549,-0.4556,-0.4572,-0.4579,-0.459,-0.4603,-0.4611,-0.4624,-0.4631,-0.4649,-0.4658,-0.4669,-0.4678,-0.4681,-0.4688,-0.469,-0.4686,-0.4685,-0.469,-0.4691,-0.4697,-0.4697,-0.4697,-0.4697,0,-0.4501,-0.4516,-0.4527,-0.4547,-0.4552,-0.4557,-0.4574,-0.458,-0.4591,-0.4601,-0.4604,-0.4622,-0.4633,-0.4648,-0.4665,-0.4672,-0.468,-0.4684,-0.4675,-0.4676,-0.4675,-0.4675,-0.4669,-0.4669,-0.4682,-0.4682,-0.4682,0,-0.4496,-0.4502,-0.4522,-0.4528,-0.4537,-0.4547,-0.4555,-0.4571,-0.4579,-0.4596,-0.46,-0.4613,-0.4624,-0.4641,-0.4656,-0.4668,-0.4673,-0.467,-0.4675,-0.4671,-0.4673,-0.4672,-0.4673,-0.4669,-0.4669,-0.4668,-0.4668,0,-0.4487,-0.4494,-0.4505,-0.4518,-0.4528,-0.4539,-0.4551,-0.4555,-0.4574,-0.4582,-0.4594,-0.4602,-0.4619,-0.4631,-0.4646,-0.4655,-0.4665,-0.4667,-0.4667,-0.4663,-0.4657,-0.466,-0.4671,-0.4667,-0.4667,-0.4667,-0.4667,-0.4667,-0.4477,-0.4483,-0.4498,-0.451,-0.4521,-0.4532,-0.4538,-0.4551,-0.4561,-0.4576,-0.4585,-0.4597,-0.4611,-0.4631,-0.464,-0.465,-0.4653,-0.4654,-0.4654,-0.4654,-0.4653,-0.4656,-0.4653,-0.4653,-0.4653,-0.4653,-0.4653,0,-0.4468,-0.4479,-0.449,-0.4506,-0.4515,-0.4524,-0.4538,-0.4545,-0.4555,-0.4568,-0.4578,-0.4592,-0.4605,-0.462,-0.4633,-0.4637,-0.4642,-0.464,-0.464,-0.4642,-0.4649,-0.4647,-0.4636,-0.4636,-0.4636,-0.4636,-0.4636,-0.4636,-0.4465,-0.4474,-0.4483,-0.4499,-0.4509,-0.4521,-0.4528,-0.4538,-0.4549,-0.4564,-0.4574,-0.4584,-0.4598,-0.4612,-0.4623,-0.4627,-0.4631,-0.4628,-0.4634,-0.464,-0.4641,-0.4643,-0.4641,-0.4629,-0.4629,-0.4626,-0.4626,-0.4626]},{"header":{"parameterUnit":"m.s-1","parameterCategory":1,"la1":30.2991,"la2":30.254,"lo1":-89.0895,"lo2":-89.0444,"dy":0.0017,"dx":0.0017,"nx":28,"ny":28,"refTime":"2025-08-02T21:00:00:Z","depth":0,"parameterNumber":3,"parameterNumberName":"V-component_of_WINDS"},"data":[0,0,0,0,0,0,0,0,0,0,0,0,0,0,0,0,0,0,0,0,0,0,0,0,0,0,0,0,0,0,0,0,0,0,0,0,0,0,0,0,0,0,0,0,0,0,0,0,0,0,0,0,0,0,0,0,0,0,-1.0318,-1.0318,0,-1.0343,-1.0343,-1.0343,-1.034,-1.034,-1.034,-1.0339,-1.0363,-1.0364,-1.0365,0,0,0,0,0,0,0,0,0,0,0,0,0,-1.0266,-1.0267,-1.0318,-1.0318,-1.0318,-1.0343,-1.0343,-1.0343,-1.0341,-1.034,-1.034,-1.0339,-1.0363,-1.0364,-1.0365,0,0,0,0,0,0,0,0,0,0,0,0,0,-1.0289,-1.0267,-1.0317,-1.032,-1.032,-1.0342,-1.0343,-1.0343,-1.0341,-1.034,-1.0339,-1.0339,-1.0362,-1.0364,-1.0365,-1.0386,0,0,-1.037,-1.037,0,0,0,0,0,0,0,0,-1.0288,-1.0291,-1.0319,-1.032,-1.032,-1.0338,-1.0333,-1.0358,-1.0341,-1.0333,-1.0339,-1.0339,-1.0355,-1.0357,-1.0363,-1.0387,-1.0388,-1.037,-1.0371,-1.0371,-1.0372,0,0,0,0,0,0,0,-1.0286,-1.029,-1.0327,-1.032,-1.032,-1.0319,-1.0322,-1.0338,-1.0347,-1.0333,-1.0333,-1.0336,-1.0355,-1.0361,-1.0363,-1.0388,-1.037,-1.0371,-1.0372,-1.0373,-1.0432,-1.0432,0,0,0,0,0,0,-1.0284,-1.0289,-1.0327,-1.0328,-1.0302,-1.0321,-1.0324,-1.0333,-1.0347,-1.0348,-1.0337,-1.0336,-1.0359,-1.0362,-1.0364,-1.039,-1.0371,-1.0373,-1.0374,-1.0431,-1.0432,-1.0433,0,0,0,0,0,0,-1.0283,-1.0288,-1.0326,-1.0308,-1.0313,-1.0322,-1.0332,-1.0334,-1.034,-1.0349,-1.0351,-1.0342,-1.0359,-1.0362,-1.0381,-1.0391,-1.0373,-1.0375,-1.043,-1.0431,-1.0432,-1.0442,0,0,0,0,0,0,-1.0282,-1.0287,-1.0296,-1.0309,-1.0314,-1.0342,-1.0333,-1.0334,-1.0343,-1.0342,-1.0354,-1.0356,-1.0359,-1.0379,-1.0382,-1.0393,-1.0376,-1.0429,-1.0431,-1.0432,-1.0441,-1.0444,-1.0446,0,0,0,0,0,-1.028,-1.0297,-1.0296,-1.0301,-1.0325,-1.0343,-1.0346,-1.035,-1.0344,-1.0352,-1.0358,-1.0355,-1.0389,-1.0381,-1.0385,-1.0396,-1.0429,-1.043,-1.0432,-1.044,-1.0443,-1.0446,0,0,0,0,0,0,-1.0284,-1.0299,-1.0298,-1.032,-1.033,-1.0342,-1.0353,-1.0352,-1.0364,-1.0363,-1.0366,-1.0369,-1.0388,-1.0394,-1.0384,-1.0417,-1.0408,-1.0411,-1.0413,-1.0416,-1.0418,-1.0417,-1.0377,0,0,0,0,0,-1.0288,-1.0302,-1.0313,-1.0331,-1.0337,-1.0344,-1.0352,-1.0354,-1.0365,-1.0369,-1.0376,-1.0386,-1.0399,-1.0408,-1.042,-1.0442,-1.0445,-1.0451,-1.0453,-1.0455,-1.0458,-1.047,-1.0473,-1.0438,-1.0438,-1.0438,0,0,-1.0295,-1.0305,-1.0313,-1.0333,-1.0341,-1.0355,-1.0348,-1.0363,-1.0374,-1.0371,-1.039,-1.0395,-1.0407,-1.0427,-1.0437,-1.0432,-1.0468,-1.0457,-1.0459,-1.046,-1.0472,-1.0475,-1.0478,-1.0439,-1.0439,-1.0438,0,0,-1.0316,-1.0324,-1.0341,-1.035,-1.0363,-1.0368,-1.0372,-1.0384,-1.0388,-1.0407,-1.0406,-1.0418,-1.044,-1.0448,-1.0456,-1.048,-1.0478,-1.0484,-1.0496,-1.0508,-1.0511,-1.0513,-1.0523,-1.0526,-1.0486,-1.0486,-1.0486,0,-1.0323,-1.0345,-1.0349,-1.0365,-1.0374,-1.0373,-1.039,-1.0398,-1.0414,-1.042,-1.0415,-1.0443,-1.045,-1.0473,-1.048,-1.0485,-1.049,-1.0483,-1.051,-1.0513,-1.0515,-1.0524,-1.0528,-1.0487,-1.0487,-1.0487,-1.0486,0,-1.0354,-1.0369,-1.0381,-1.0398,-1.0408,-1.0424,-1.043,-1.0439,-1.044,-1.0445,-1.0465,-1.0474,-1.0488,-1.0494,-1.0494,-1.0517,-1.0514,-1.051,-1.0501,-1.0519,-1.0528,-1.0531,-1.0488,-1.0487,-1.0487,-1.0487,0,0,-1.0379,-1.0398,-1.0402,-1.041,-1.0425,-1.0436,-1.0452,-1.0467,-1.0476,-1.0486,-1.05,-1.0519,-1.0516,-1.0524,-1.0525,-1.0536,-1.0556,-1.053,-1.0531,-1.0535,-1.0582,-1.0586,-1.059,-1.0554,-1.0555,-1.0556,-1.0581,0,-1.0402,-1.0431,-1.0435,-1.0461,-1.0475,-1.0475,-1.0489,-1.0499,-1.0504,-1.0517,-1.0522,-1.0536,-1.053,-1.0535,-1.0545,-1.0551,-1.0565,-1.0549,-1.0567,-1.0568,-1.0565,-1.0594,-1.0598,-1.0622,-1.0584,-1.0585,-1.0585,0,-1.0432,-1.0446,-1.0473,-1.0486,-1.0493,-1.0505,-1.052,-1.0532,-1.0543,-1.0546,-1.0556,-1.0556,-1.0572,-1.0563,-1.0585,-1.0574,-1.0582,-1.0586,-1.0587,-1.0589,-1.0578,-1.0598,-1.0629,-1.0633,-1.0591,-1.059,-1.059,0,-1.0449,-1.0473,-1.0493,-1.0499,-1.0515,-1.0524,-1.0531,-1.0542,-1.0551,-1.0563,-1.0569,-1.0583,-1.0591,-1.0601,-1.0605,-1.0598,-1.0628,-1.0618,-1.0631,-1.0631,-1.0638,-1.0638,-1.0672,-1.0641,-1.0641,-1.0641,-1.0641,0,-1.0475,-1.0491,-1.0501,-1.0513,-1.0532,-1.0536,-1.0555,-1.0561,-1.0571,-1.0584,-1.0584,-1.0596,-1.0601,-1.0614,-1.0617,-1.0635,-1.0638,-1.0641,-1.0642,-1.0642,-1.0642,-1.0647,-1.0646,-1.0642,-1.0642,-1.0642,-1.0642,0,-1.0496,-1.0503,-1.0525,-1.0538,-1.0542,-1.0555,-1.0567,-1.0578,-1.0583,-1.06,-1.0604,-1.0612,-1.0628,-1.0633,-1.0651,-1.0653,-1.0675,-1.0674,-1.0671,-1.0672,-1.0685,-1.0684,-1.0724,-1.073,-1.0695,-1.0696,-1.0696,0,-1.0513,-1.0526,-1.0541,-1.055,-1.0558,-1.0573,-1.0582,-1.0587,-1.0597,-1.0611,-1.0621,-1.0637,-1.0649,-1.0674,-1.0681,-1.0695,-1.0694,-1.0708,-1.0696,-1.0696,-1.0695,-1.0695,-1.0697,-1.071,-1.071,-1.0711,-1.0711,0,-1.0541,-1.0544,-1.0558,-1.0574,-1.0586,-1.0598,-1.0609,-1.0617,-1.0623,-1.0634,-1.065,-1.066,-1.0679,-1.0695,-1.0709,-1.0715,-1.0714,-1.0714,-1.0718,-1.0718,-1.0717,-1.0719,-1.0678,-1.0713,-1.0713,-1.0713,-1.0713,-1.0713,-1.0562,-1.0574,-1.0587,-1.0603,-1.0612,-1.0623,-1.0635,-1.0642,-1.0656,-1.0673,-1.0674,-1.0692,-1.0703,-1.0722,-1.073,-1.0743,-1.0739,-1.0745,-1.0746,-1.0748,-1.0749,-1.0714,-1.0746,-1.0746,-1.0745,-1.0745,-1.0745,0,-1.0591,-1.06,-1.0614,-1.0631,-1.0644,-1.0642,-1.0655,-1.0666,-1.0681,-1.0692,-1.0705,-1.0724,-1.0739,-1.0747,-1.0762,-1.0771,-1.0771,-1.0775,-1.0775,-1.0777,-1.0751,-1.0747,-1.0775,-1.0775,-1.0775,-1.0775,-1.0775,-1.0775,-1.0608,-1.0629,-1.0633,-1.0659,-1.0667,-1.0685,-1.0692,-1.0703,-1.0712,-1.0733,-1.0746,-1.0751,-1.0761,-1.0777,-1.0791,-1.0793,-1.0799,-1.0803,-1.0805,-1.0781,-1.0778,-1.0775,-1.0771,-1.0804,-1.0804,-1.0829,-1.0829,-1.083]}]]